GW0701 Weather Reports


Display with metric or nautical units.
time (UTC)temp
F
wind
direction
speed
MPH
gust
MPH
rain 1hr
in
rain 24hr
in
rain mn
in
humidity
%
barometer
mb
20260901205600 98 240 2.0 2.0 0.00 0.00 0.00 41 1013.9
20260901205059 98 229 3.0 3.0 0.00 0.00 0.00 40 1013.7
20260901204555 98 182 6.0 7.0 0.00 0.00 0.00 41 1013.9
20260901204050 98 245 2.0 2.0 0.00 0.00 0.00 42 1014.0
20260901203544 98 223 3.0 3.0 0.00 0.00 0.00 38 1013.9
20260901203040 98 223 3.0 3.0 0.00 0.00 0.00 39 1013.8
20260901202534 98 206 4.0 6.0 0.00 0.00 0.00 39 1014.1
20260901202031 99 211 5.0 6.0 0.00 0.00 0.00 39 1014.0
20260901201526 99 220 1.0 2.0 0.00 0.00 0.00 42 1014.1
20260901201020 98 245 4.0 7.0 0.00 0.00 0.00 39 1014.2
20260901200520 98 209 3.0 5.0 0.00 0.00 0.00 40 1014.2
20260901200020 99 213 2.0 3.0 0.00 0.00 0.00 40 1014.2
20260901195518 99 240 2.0 3.0 0.00 0.00 0.00 39 1014.3
20260901195017 98 229 3.0 5.0 0.00 0.00 0.00 42 1014.2
20260901194512 98 240 3.0 3.0 0.00 0.00 0.00 40 1014.3
20260901194008 99 250 3.0 5.0 0.00 0.00 0.00 42 1014.4
20260901193507 98 185 3.0 5.0 0.00 0.00 0.00 41 1014.3
20260901193002 98 253 5.0 7.0 0.00 0.00 0.00 40 1014.4
20260901192457 98 251 5.0 6.0 0.00 0.00 0.00 43 1014.4
20260901191953 98 208 4.0 6.0 0.00 0.00 0.00 41 1014.7
20260901191449 99 249 5.0 7.0 0.00 0.00 0.00 41 1014.6
20260901190944 98 208 4.0 5.0 0.00 0.00 0.00 44 1014.6
20260901190440 98 240 1.0 1.0 0.00 0.00 0.00 42 1014.7
20260901185938 98 261 2.0 2.0 0.00 0.00 0.00 46 1014.9
20260901185438 98 267 5.0 7.0 0.00 0.00 0.00 41 1014.9
20260901184937 98 246 3.0 5.0 0.00 0.00 0.00 43 1014.8
20260901184432 99 311 2.0 3.0 0.00 0.00 0.00 43 1014.8
20260901183928 98 259 3.0 3.0 0.00 0.00 0.00 44 1015.0
20260901183427 98 276 3.0 5.0 0.00 0.00 0.00 43 1014.8
20260901182923 97 227 2.0 3.0 0.00 0.00 0.00 46 1014.8
20260901182419 97 234 3.0 5.0 0.00 0.00 0.00 45 1015.1
20260901181913 98 244 2.0 2.0 0.00 0.00 0.00 47 1015.0
20260901181409 97 249 2.0 3.0 0.00 0.00 0.00 44 1015.0
20260901180907 98 255 1.0 1.0 0.00 0.00 0.00 46 1015.3
20260901180407 98 242 3.0 5.0 0.00 0.00 0.00 44 1015.1
20260901175905 98 251 2.0 2.0 0.00 0.00 0.00 44 1015.2
20260901175400 97 229 1.0 1.0 0.00 0.00 0.00 46 1015.3
20260901174855 98 227 2.0 3.0 0.00 0.00 0.00 44 1015.4
20260901174351 97 229 3.0 3.0 0.00 0.00 0.00 45 1015.2
20260901173847 98 242 5.0 6.0 0.00 0.00 0.00 45 1015.3
20260901173341 97 216 3.0 3.0 0.00 0.00 0.00 46 1015.4
20260901172838 96 269 3.0 5.0 0.00 0.00 0.00 46 1015.4
20260901172337 96 234 5.0 6.0 0.00 0.00 0.00 45 1015.5
20260901171835 96 208 4.0 5.0 0.00 0.00 0.00 47 1015.6
20260901171334 96 233 1.0 1.0 0.00 0.00 0.00 48 1015.5
20260901170833 95 273 3.0 3.0 0.00 0.00 0.00 53 1015.7
20260901170328 95 232 3.0 3.0 0.00 0.00 0.00 49 1015.6
20260901165828 95 226 2.0 2.0 0.00 0.00 0.00 52 1015.6
20260901165322 95 226 1.0 2.0 0.00 0.00 0.00 52 1015.7
20260901164819 95 226 2.0 2.0 0.00 0.00 0.00 53 1015.7
20260901164314 94 260 2.0 3.0 0.00 0.00 0.00 52 1015.8
20260901163808 95 263 2.0 3.0 0.00 0.00 0.00 54 1016.0
20260901163303 94 256 2.0 2.0 0.00 0.00 0.00 54 1015.9
20260901162758 93 239 3.0 3.0 0.00 0.00 0.00 55 1015.8
20260901162257 93 257 4.0 6.0 0.00 0.00 0.00 55 1015.9
20260901161756 93 249 2.0 2.0 0.00 0.00 0.00 56 1016.0
20260901161250 93 207 3.0 5.0 0.00 0.00 0.00 57 1015.8
20260901160746 92 218 4.0 6.0 0.00 0.00 0.00 57 1015.8
20260901160242 92 250 1.0 2.0 0.00 0.00 0.00 58 1016.0
20260901155741 91 228 3.0 3.0 0.00 0.00 0.00 58 1015.7
20260901155236 91 201 3.0 6.0 0.00 0.00 0.00 59 1016.0
20260901154732 91 213 2.0 2.0 0.00 0.00 0.00 60 1016.0
20260901154226 90 228 0.0 1.0 0.00 0.00 0.00 60 1016.0
20260901153721 91 197 2.0 2.0 0.00 0.00 0.00 60 1016.0
20260901153221 90 268 3.0 3.0 0.00 0.00 0.00 62 1016.0
20260901152715 89 245 2.0 2.0 0.00 0.00 0.00 63 1016.0
20260901152214 89 239 2.0 3.0 0.00 0.00 0.00 62 1016.1
20260901151710 89 198 1.0 2.0 0.00 0.00 0.00 63 1016.1
20260901151209 88 257 2.0 3.0 0.00 0.00 0.00 63 1016.1
20260901150709 87 240 2.0 2.0 0.00 0.00 0.00 64 1016.2
20260901150207 87 256 2.0 3.0 0.00 0.00 0.00 64 1016.2
20260901145705 86 274 2.0 2.0 0.00 0.00 0.00 65 1016.1
20260901145159 86 246 4.0 5.0 0.00 0.00 0.00 65 1016.3
20260901144655 85 247 3.0 6.0 0.00 0.00 0.00 66 1016.3
20260901144150 85 205 4.0 5.0 0.00 0.00 0.00 66 1016.2
20260901143645 85 192 3.0 3.0 0.00 0.00 0.00 68 1016.1
20260901143142 84 256 2.0 2.0 0.00 0.00 0.00 69 1016.1
20260901142638 84 258 3.0 3.0 0.00 0.00 0.00 69 1016.0
20260901142137 84 206 3.0 3.0 0.00 0.00 0.00 69 1016.0
20260901141631 83 219 3.0 3.0 0.00 0.00 0.00 70 1016.0
20260901141131 83 235 2.0 3.0 0.00 0.00 0.00 70 1016.1
20260901140630 82 246 2.0 2.0 0.00 0.00 0.00 71 1015.9
20260901140130 82 208 2.0 3.0 0.00 0.00 0.00 72 1015.9
20260901135630 82 253 2.0 3.0 0.00 0.00 0.00 74 1016.1
20260901135125 81 251 2.0 2.0 0.00 0.00 0.00 75 1016.2
20260901134621 80 241 0.0 1.0 0.00 0.00 0.00 76 1016.1
20260901134116 80 237 1.0 1.0 0.00 0.00 0.00 77 1016.2
20260901133614 80 230 1.0 1.0 0.00 0.00 0.00 77 1016.6
20260901133108 79 228 1.0 1.0 0.00 0.00 0.00 80 1016.2
20260901132603 78 235 1.0 1.0 0.00 0.00 0.00 81 1016.1
20260901132103 78 219 1.0 1.0 0.00 0.00 0.00 83 1016.1
20260901131602 77 218 1.0 1.0 0.00 0.00 0.00 85 1016.2
20260901131057 77 220 1.0 2.0 0.00 0.00 0.00 84 1016.1
20260901130552 76 190 2.0 2.0 0.00 0.00 0.00 85 1016.2
20260901130050 76 224 1.0 1.0 0.00 0.00 0.00 86 1016.3
20260901125549 76 190 2.0 2.0 0.00 0.00 0.00 86 1016.1
20260901125044 75 196 1.0 1.0 0.00 0.00 0.00 87 1016.2
20260901124544 75 198 1.0 1.0 0.00 0.00 0.00 87 1016.0
20260901124039 75 206 0.0 0.0 0.00 0.00 0.00 90 1016.2
20260901123534 75 196 0.0 0.0 0.00 0.00 0.00 91 1015.7
20260901123033 73 208 0.0 0.0 0.00 0.00 0.00 93 1016.0
20260901122532 72 213 0.0 0.0 0.00 0.00 0.00 96 1015.9
20260901122031 71 213 0.0 0.0 0.00 0.00 0.00 97 1015.8
20260901121526 71 214 0.0 0.0 0.00 0.00 0.00 98 1015.9
20260901121022 71 229 0.0 0.0 0.00 0.00 0.00 98 1015.5
20260901120521 70 230 0.0 0.0 0.00 0.00 0.00 99 1015.5
20260901120017 70 226 0.0 0.0 0.00 0.00 0.00 99 1015.5
20260901115512 70 226 0.0 0.0 0.00 0.00 0.00 99 1015.1
20260901115009 70 226 0.0 0.0 0.00 0.00 0.00 99 1015.2
20260901114504 70 226 0.0 0.0 0.00 0.00 0.00 99 1015.2
20260901114003 70 224 0.0 0.0 0.00 0.00 0.00 98 1015.2
20260901113502 70 224 0.0 0.0 0.00 0.00 0.00 98 1015.1
20260901112957 70 223 0.0 0.0 0.00 0.00 0.00 98 1015.2
20260901112452 70 187 0.0 0.0 0.00 0.00 0.00 98 1015.0
20260901111947 70 187 0.0 0.0 0.00 0.00 0.00 98 1014.9
20260901111446 71 187 0.0 0.0 0.00 0.00 0.00 98 1015.0
20260901110944 71 186 0.0 0.0 0.00 0.00 0.00 98 1015.0
20260901110440 71 187 0.0 0.0 0.00 0.00 0.00 98 1014.9
20260901105936 71 255 0.0 0.0 0.00 0.00 0.00 97 1014.8
20260901105432 72 280 0.0 0.0 0.00 0.00 0.00 97 1014.7
20260901104927 72 233 0.0 0.0 0.00 0.00 0.00 96 1014.5
20260901104422 72 233 0.0 0.0 0.00 0.00 0.00 95 1014.5
20260901103917 72 233 0.0 0.0 0.00 0.00 0.00 94 1014.6
20260901103412 73 233 0.0 0.0 0.00 0.00 0.00 93 1014.5
20260901102907 73 233 0.0 0.0 0.00 0.00 0.00 93 1014.6
20260901102401 73 219 1.0 1.0 0.00 0.00 0.00 93 1014.5
20260901101857 73 222 1.0 1.0 0.00 0.00 0.00 94 1014.5
20260901101357 73 219 1.0 2.0 0.00 0.00 0.00 94 1014.5
20260901100856 72 201 1.0 2.0 0.00 0.00 0.00 95 1014.5
20260901100351 73 206 0.0 0.0 0.00 0.00 0.00 95 1014.5
20260901095850 73 207 0.0 0.0 0.00 0.00 0.00 95 1014.5
20260901095348 73 201 1.0 1.0 0.00 0.00 0.00 95 1014.5
20260901094842 73 218 0.0 0.0 0.00 0.00 0.00 94 1014.5
20260901094336 73 230 0.0 0.0 0.00 0.00 0.00 93 1014.6
20260901093832 73 231 0.0 0.0 0.00 0.00 0.00 93 1014.5
20260901093331 73 239 0.0 0.0 0.00 0.00 0.00 93 1014.3
20260901092827 74 234 0.0 0.0 0.00 0.00 0.00 93 1014.4
20260901092322 74 247 0.0 0.0 0.00 0.00 0.00 93 1014.3
20260901091819 74 248 0.0 1.0 0.00 0.00 0.00 92 1014.4
20260901091318 74 244 0.0 0.0 0.00 0.00 0.00 92 1014.2
20260901090813 74 225 0.0 0.0 0.00 0.00 0.00 92 1014.3
20260901090308 74 220 0.0 0.0 0.00 0.00 0.00 92 1014.3
20260901085804 74 199 1.0 1.0 0.00 0.00 0.00 92 1014.2
20260901085259 74 215 1.0 1.0 0.00 0.00 0.00 92 1014.2
20260901084755 74 215 1.0 1.0 0.00 0.00 0.00 92 1014.3
20260901084252 74 221 1.0 2.0 0.00 0.00 0.00 93 1014.2
20260901083751 73 213 0.0 0.0 0.00 0.00 0.00 94 1014.4
20260901083251 73 209 0.0 1.0 0.00 0.00 0.00 95 1014.5
20260901082750 73 209 0.0 0.0 0.00 0.00 0.00 96 1014.3
20260901082245 73 224 0.0 0.0 0.00 0.00 0.00 95 1014.2
20260901081741 73 225 0.0 0.0 0.00 0.00 0.00 95 1014.4
20260901081240 73 225 0.0 0.0 0.00 0.00 0.00 95 1014.3
20260901080735 74 225 0.0 0.0 0.00 0.00 0.00 95 1014.4
20260901080229 74 225 0.0 0.0 0.00 0.00 0.00 94 1014.4
20260901075728 74 225 0.0 0.0 0.00 0.00 0.00 93 1014.5
20260901075224 75 225 0.0 0.0 0.00 0.00 0.00 92 1014.4
20260901074718 75 225 0.0 0.0 0.00 0.00 0.00 91 1014.5
20260901074213 75 225 0.0 0.0 0.00 0.00 0.00 91 1014.7
20260901073710 75 224 0.0 0.0 0.00 0.00 0.00 90 1014.6
20260901073205 76 224 0.0 0.0 0.00 0.00 0.00 89 1014.3
20260901072700 76 225 0.0 0.0 0.00 0.00 0.00 88 1014.2
20260901072154 76 225 0.0 0.0 0.00 0.00 0.00 88 1014.3
20260901071649 76 225 0.0 0.0 0.00 0.00 0.00 88 1014.4
20260901071149 77 224 0.0 0.0 0.00 0.00 0.00 87 1014.2
20260901070643 77 213 0.0 1.0 0.00 0.00 0.00 87 1014.3
20260901070138 77 218 0.0 1.0 0.00 0.00 0.00 86 1014.4
20260901065637 77 231 0.0 1.0 0.00 0.00 0.00 87 1014.5
20260901065132 77 223 1.0 1.0 0.00 0.00 0.00 86 1014.4
20260901064629 77 221 1.0 2.0 0.00 0.00 0.00 86 1014.2
20260901064125 77 225 0.0 0.0 0.00 0.00 0.00 86 1014.5
20260901063622 77 223 1.0 1.0 0.00 0.00 0.00 85 1014.4
20260901063118 77 225 1.0 1.0 0.00 0.00 0.00 85 1014.5
20260901062614 78 226 0.0 0.0 0.00 0.00 0.00 84 1014.3
20260901062110 78 224 1.0 2.0 0.00 0.00 0.00 84 1014.5
20260901061606 78 233 1.0 2.0 0.00 0.00 0.00 84 1014.4
20260901061105 78 227 0.0 0.0 0.00 0.00 0.00 84 1014.2
20260901060600 78 234 0.0 0.0 0.00 0.00 0.00 83 1014.4
20260901060055 78 230 0.0 0.0 0.00 0.00 0.00 83 1014.2
20260901055550 79 229 1.0 1.0 0.00 0.00 0.00 83 1014.1
20260901055047 79 227 1.0 1.0 0.00 0.00 0.00 82 1014.3
20260901054544 79 232 1.0 1.0 0.00 0.00 0.00 82 1014.3
20260901054040 79 222 1.0 1.0 0.00 0.00 0.00 81 1014.2
20260901053536 79 240 1.0 1.0 0.00 0.00 0.00 81 1014.3
20260901053031 80 228 0.0 1.0 0.00 0.00 0.00 80 1014.1
20260901052526 80 220 1.0 2.0 0.00 0.00 0.00 80 1014.1
20260901052026 80 231 1.0 1.0 0.00 0.00 0.00 80 1014.0
20260901051521 80 231 1.0 2.0 0.00 0.00 0.00 80 1014.0
20260901051019 80 234 1.0 2.0 0.00 0.00 0.00 80 1014.0
20260901050515 80 232 1.0 2.0 0.00 0.00 0.00 79 1014.1
20260901050010 80 226 2.0 2.0 0.00 0.00 0.00 78 1014.1
20260901045505 81 216 2.0 2.0 0.00 0.00 0.00 78 1014.0
20260901045000 81 241 3.0 3.0 0.00 0.00 0.00 78 1014.0
20260901044456 81 229 2.0 2.0 0.00 0.00 0.00 78 1014.1
20260901043952 81 214 2.0 2.0 0.00 0.00 0.00 78 1013.8
20260901043447 81 223 1.0 1.0 0.00 0.00 0.00 78 1014.1
20260901042942 81 226 1.0 1.0 0.00 0.00 0.00 78 1013.9
20260901042441 81 230 1.0 2.0 0.00 0.00 0.00 78 1014.0
20260901041937 81 230 1.0 1.0 0.00 0.00 0.00 78 1013.8
20260901041432 81 234 2.0 2.0 0.00 0.00 0.00 78 1014.0
20260901040931 81 193 2.0 3.0 0.00 0.00 0.00 78 1014.1
20260901040427 82 200 1.0 1.0 0.00 0.00 0.00 78 1013.7
20260901035925 81 197 1.0 2.0 0.00 0.00 0.00 78 1013.9
20260901035424 81 223 2.0 2.0 0.00 0.00 0.00 80 1013.9
20260901034923 80 221 1.0 1.0 0.00 0.00 0.00 81 1013.7
20260901034418 80 236 0.0 0.0 0.00 0.00 0.00 81 1014.0
20260901033913 81 224 1.0 1.0 0.00 0.00 0.00 81 1013.7
20260901033412 81 235 1.0 1.0 0.00 0.00 0.00 81 1014.0
20260901032911 80 210 2.0 2.0 0.00 0.00 0.00 82 1014.0
20260901032410 80 204 1.0 1.0 0.00 0.00 0.00 83 1014.0
20260901031905 80 205 1.0 1.0 0.00 0.00 0.00 85 1013.9
20260901031401 80 217 0.0 0.0 0.00 0.00 0.00 84 1014.0
20260901030900 80 209 0.0 1.0 0.00 0.00 0.00 84 1014.2
20260901030356 81 243 0.0 0.0 0.00 0.00 0.00 84 1014.1
20260901025855 81 235 0.0 0.0 0.00 0.00 0.00 83 1014.1
20260901025350 81 193 0.0 0.0 0.00 0.00 0.00 83 1013.9
20260901024845 80 210 1.0 1.0 0.00 0.00 0.00 83 1013.8
20260901024344 80 208 1.0 1.0 0.00 0.00 0.00 84 1013.9
20260901023842 81 211 0.0 0.0 0.00 0.00 0.00 83 1014.0
20260901023338 81 212 0.0 0.0 0.00 0.00 0.00 82 1014.1
20260901022833 81 212 0.0 0.0 0.00 0.00 0.00 82 1014.0
20260901022329 81 212 0.0 0.0 0.00 0.00 0.00 82 1013.8
20260901021824 81 212 0.0 0.0 0.00 0.00 0.00 83 1013.7
20260901021319 82 212 0.0 0.0 0.00 0.00 0.00 82 1013.9
20260901020814 82 212 0.0 0.0 0.00 0.00 0.00 80 1013.8
20260901020310 82 212 0.0 0.0 0.00 0.00 0.00 79 1013.7
20260901015810 82 212 0.0 0.0 0.00 0.00 0.00 79 1013.8
20260901015306 83 212 0.0 0.0 0.00 0.00 0.00 80 1013.7
20260901014805 83 214 0.0 0.0 0.00 0.00 0.00 79 1013.6
20260901014301 83 205 1.0 1.0 0.00 0.00 0.00 78 1013.6
20260901013757 84 205 0.0 1.0 0.00 0.00 0.00 78 1013.6
20260901013252 84 206 0.0 0.0 0.00 0.00 0.00 78 1013.5
20260901012747 84 204 0.0 0.0 0.00 0.00 0.00 77 1013.4
20260901012247 84 202 1.0 1.0 0.00 0.00 0.00 76 1013.3
20260901011743 84 196 0.0 0.0 0.00 0.00 0.00 77 1013.6
20260901011238 84 196 1.0 1.0 0.00 0.00 0.00 75 1013.3
20260901010732 83 211 0.0 0.0 0.00 0.00 0.00 79 1013.4
20260901010227 83 260 0.0 0.0 0.00 0.00 0.00 85 1013.1
20260901005726 83 260 0.0 0.0 0.00 0.00 0.00 87 1013.1
20260901005221 84 260 0.0 0.0 0.00 0.00 0.00 86 1013.2
20260901004721 84 260 0.0 0.0 0.00 0.00 0.00 86 1013.1
20260901004216 84 259 0.0 0.0 0.00 0.00 0.00 85 1013.1
20260901003715 85 260 0.0 0.0 0.00 0.00 0.00 81 1012.8
20260901003215 85 260 0.0 0.0 0.00 0.00 0.00 81 1013.1
20260901002709 86 260 0.0 0.0 0.00 0.00 0.00 81 1013.0
20260901002204 87 260 0.0 0.0 0.00 0.00 0.00 80 1012.9
20260901001700 87 260 0.0 0.0 0.00 0.00 0.00 80 1012.9
20260901001154 88 260 0.0 0.0 0.00 0.00 0.00 79 1012.8
20260901000650 89 260 0.0 0.0 0.00 0.00 0.00 77 1012.9
20260901000145 89 260 0.0 0.0 0.00 0.00 0.00 76 1013.0
20260831235644 89 260 0.0 0.0 0.00 0.00 0.00 76 1013.0
20260831235140 90 261 0.0 0.0 0.00 0.00 0.00 72 1013.0
20260831234639 89 261 0.0 0.0 0.00 0.00 0.00 72 1012.8
20260831234135 89 261 0.0 0.0 0.00 0.00 0.00 71 1012.9
20260831233630 91 263 0.0 0.0 0.00 0.00 0.00 70 1013.0
20260831233125 92 254 0.0 0.0 0.00 0.00 0.00 68 1013.0
20260831232620 92 256 0.0 0.0 0.00 0.00 0.00 66 1012.7
20260831232116 92 251 0.0 0.0 0.00 0.00 0.00 65 1012.9
20260831231612 93 243 0.0 1.0 0.00 0.00 0.00 63 1012.7
20260831231108 93 240 0.0 0.0 0.00 0.00 0.00 62 1012.9
20260831230604 93 251 0.0 0.0 0.00 0.00 0.00 63 1012.8
20260831230103 94 251 1.0 1.0 0.00 0.00 0.00 61 1012.6
20260831225558 95 265 2.0 2.0 0.00 0.00 0.00 59 1012.7
20260831225053 95 234 1.0 1.0 0.00 0.00 0.00 58 1012.8
20260831224548 95 247 1.0 1.0 0.00 0.00 0.00 57 1012.4
20260831224043 95 233 1.0 1.0 0.00 0.00 0.00 58 1012.4
20260831223539 95 232 2.0 2.0 0.00 0.00 0.00 57 1012.5
20260831223035 94 211 2.0 2.0 0.00 0.00 0.00 59 1012.5
20260831222531 94 209 2.0 2.0 0.00 0.00 0.00 58 1012.4
20260831222030 95 219 1.0 2.0 0.00 0.00 0.00 57 1012.4
20260831221526 95 223 1.0 1.0 0.00 0.00 0.00 56 1012.6
20260831221021 95 257 3.0 5.0 0.00 0.00 0.00 56 1012.4
20260831220517 95 221 1.0 1.0 0.00 0.00 0.00 56 1012.7
20260831220012 95 237 1.0 1.0 0.00 0.00 0.00 55 1012.8
20260831215507 96 229 1.0 1.0 0.00 0.00 0.00 55 1012.8
20260831215003 96 259 1.0 2.0 0.00 0.00 0.00 54 1012.7
20260831214501 95 237 1.0 2.0 0.00 0.00 0.00 56 1012.5
20260831213956 94 242 3.0 3.0 0.00 0.00 0.00 56 1012.7
20260831213453 94 223 1.0 2.0 0.00 0.00 0.00 56 1012.6
20260831212952 94 231 3.0 3.0 0.00 0.00 0.00 55 1012.6
20260831212448 94 241 3.0 3.0 0.00 0.00 0.00 54 1012.7
20260831211943 94 237 1.0 1.0 0.00 0.00 0.00 54 1012.7
20260831211438 95 258 1.0 2.0 0.00 0.00 0.00 55 1012.8
20260831210937 95 266 4.0 6.0 0.00 0.00 0.00 53 1012.8
20260831210433 95 237 3.0 3.0 0.00 0.00 0.00 52 1012.7
20260831205928 95 265 3.0 5.0 0.00 0.00 0.00 52 1012.9